Погода Макушино

Погода Макушино : погода сейчас, прогноз погоды и архив. Всё, что Вы хотите узнать о погоде Макушино!

Поиск расширенной информации на нашем сайте:

Другие новости

Новости СМИ2

Главная страница сайта

Новости сайта

02.10.2013

Напоминаем, что на нашем новом сайте вы можете получить высокодетализированные прогнозы погоды по пунктам России, СНГ и мира (включающие важные для авиации метеовеличины, такие как направление и скорость ветра, видимость, явления погоды, количество и форма облачности, нижняя и верхняя граница облачности), а также ознакомиться с разнообразными материалами по авиационной метеорологии и подборкой полезных ссылок на эту тему.

Сайт Метеоцентр.Азия посвящён разработке технологий оптимизации авиаметеорологического обслуживания, включая проектирование и перспективное создание нескольких автоматизированных авиаметеорологических систем:
- система выпуска высокодетальных прогностических карт явлений погоды для нижнего воздушного пространства по России и ближнему зарубежью;
- система верификации прогнозов TAF (выпускаемых синоптиками официальных АМСГ РФ и ближнего зарубежья) и AUTOTAF (выпускаемых сайтом Метеоцентр.Азия) - выявление ошибок, онлайн-сопоставление с фактической погодой METAR, автоматическое внесение коррективов в прогнозы при резком отклонении фактической погоды от прогноза, подсчёт оправдываемости прогнозов по элементам и в целом;
- система обработки, анализа и отображения авиаметеорологической информации для применения провайдерами метеорологической информации.


Погода Макушино - сегодня

Время (UTC), дата Ветер
(°,м/с) 
Видим.   Явления Облачность Т
(°С)
Тd
(°С)
f(%) Тe
(°С)
Pmin
(гПа)
dP
(гПа)
Po
(мм)
O2
(г/м3)
Тmin Tmax R s Состояние
почвы
12 15.01.17 210 (ЮЗ) 20000 м    8/0 верхняя 
[Ci sp]
-18.1 -21 78 -22  1038.1  0.9  764  331           
15 15.01.17 230 (ЮЗ) 20000 м    8/0 верхняя 
[Ci sp]
-19.1 -21.3 83 -23  1038.2  764  333    -16.4       
18 15.01.17 220 (ЮЗ) 20000 м    8/0 средняя 
[As trans]
-19.7 -22.3 80 -22  1038.3  0.1  764  334           
21 15.01.17 220 (ЮЗ) 4000 м  дымка  10/10 600 м 
[Sc]
-19.1 -21.6 81 -19  1039  0.7  765  333           
00 16.01.17 230 (ЮЗ) 4000 м  дымка  10/10 600 м 
[Sc]
-20 -22.6 80 -20  1039.2  0.1  765  334           
03 16.01.17 210 (ЮЗ) 4000 м    10/10 600 м 
[Sc]
-19.4 -21.9 81 -20  1039.5  0.3  765  334  -20      35  равномерный
сухой снег
100% 
06 16.01.17 230 (ЮЗ) 4000 м  дымка  8/4 1000 м верхняя 
[Sc|Ci sp]
-16.9 -19.3 82 -17  1039.7  0.4  765  330           
09 16.01.17 220 (ЮЗ) 20000 м    5/0 верхняя 
[Ci sp]
-14.9 -17.2 83 -17  1039.1  -0.4  765  328           
12 16.01.17 210 (ЮЗ) 20000 м    9/0 верхняя 
[Ci sp]
-18 -20.4 81 -21  1040.1  0.7  766  332           
15 16.01.17 210 (ЮЗ) 20000 м    3/0 верхняя 
[Ci fib]
-19.9 -22.5 80 -23  1040.3  766  334    -14.5       
18 16.01.17 230 (ЮЗ) 20000 м    ясно 
-19.7 -22.3 80 -24  1040.4  0.1  766  334           
21 16.01.17 220 (ЮЗ) 20000 м    4/0 верхняя 
[Ci fib]
-19.9 -22.5 80 -24  1040.4  766  334           
00 17.01.17 210 (ЮЗ) 20000 м    3/0 верхняя 
[Ci sp]
-21.2 -23.9 79 -24  1041.3  0.8  766  337           
03 17.01.17 220 (ЮЗ) 20000 м    5/0 верхняя 
[Ci sp]
-21.9 -24.7 78 -25  1041.2  -0.1  766  337  -22      35  равномерный
сухой снег
100% 
06 17.01.17 220 (ЮЗ) 20000 м    8/0 верхняя 
[Ci sp]
-18.8 -21.4 80 -21  1041.5  0.5  767  333  -22         
09 17.01.17 210 (ЮЗ) 20000 м    6/0 верхняя 
[Ci sp]
-15.2 -17.7 81 -17  1040.9  -0.3  766  329           
12 17.01.17 220 (ЮЗ) 20000 м    3/0 верхняя 
[Ci sp]
-17.9 -20.5 80 -22  1041.2  0.1  767  332           
15 17.01.17 210 (ЮЗ) 20000 м    3/0 верхняя 
[Ci fib]
-19.3 -21.8 80 -24  1041.1  -0.2  766  334    -14.9       
18 17.01.17 210 (ЮЗ) 4000 м  слаб. снег  8/0 средняя 
[As trans]
-19.9 -22.4 80 -23  1040.8  -0.4  766  335           
21 17.01.17 210 (ЮЗ) 20000 м  {снег}  8/0 средняя 
[As trans]
-20.3 -22.9 80 -23  1040  -0.8  765  335           
00 18.01.17 200 (Ю) 20000 м  {снег}  4/0 верхняя 
[Ci fib]
-22 -24.9 77 -22  1039.6  -0.5  765  337           
03 18.01.17 210 (ЮЗ) 20000 м    8/0 верхняя 
[Ci sp]
-22.3 -25.2 77 -23  1038.7  -0.9  764  337  -22.4    0.0  35  равномерный
сухой снег
100% 
06 18.01.17 200 (Ю) 0500 м  переохл. туман  ?/?  
-18.8 -21.4 80 -19  1037.9  -0.6  764  332  -22.4         
09 18.01.17 140 (ЮВ) 20000 м  {туман}  3/0 верхняя 
[Ci sp]
-16.1 -18.8 80 -16  1036.8  -0.9  763  328           
12 18.01.17 140 (ЮВ) 20000 м  {туман}  9/9 1000 м 
[Sc]
-18.4 -20.9 81 -21  1036.5  -0.5  763  331           
Время (UTC), дата Ветер
(°,м/с) 
Видим.   Явления Облачность Т
(°С)
Тd
(°С)
f(%) Тe
(°С)
Pmin
(гПа)
dP
(гПа)
Po
(мм)
O2
(г/м3)
Тmin Tmax R s Состояние
почвы

Для получения пояснительной информации подведите курсор к названию столбца.

ПОГОДА Макушино - архив

Всё, что Вы хотите узнать о погоде Макушино - удобно и подробно!

Выберите нужную дату (начиная с 1 января 2015* года) и нажмите кнопку "Найти".
Будут отображены архивные сводки погоды по пункту Макушино, начиная с указанной даты.


Отображать данные в формате CSV (для использования в таблицах Excel)


Внимание! Наш архив погоды предназначен исключительно для личного некоммерческого использования в познавательных целях. Если Вам необходимы официальные справки о состоянии погоды (для производственных, юридических, коммерческих и т.п. целей), обращайтесь в органы Росгидромета.

*Примечание: данная дата относится к архиву по метеостанциям СССР (Россия, СНГ, Балтия).
Архив по метеостанциям Зарубежной Европы и Азии (кроме Китая) хранится 10 дней, по другим регионам земного шара (Китай, Африка, Америка, Австралия, Океания) - 1 день.

Макушино - район местоположения метеостанции


Название, широта, долгота, высота метеостанции:
Макушино 55.2°ш. 67.3°д. 140 м над ур. моря [Российская Федерация]

Дополнительная информация

В oтличие oт бoльшинства пoгoдных сайтoв мы публикуем пoдрoбную метеoинфoрмацию в детальнoм прoфессиoнальнoм фoрмате.

Характеристики температуры и влажнoсти вoздуха измеряются на высoте 2 м в тени вдали oт зданий и деревьев.
Скoрoсть ветра измеряется на высoте 10 м (на урoвне рoста челoвека скoрoсть ветра ниже в 1.5-2 раза). Если метеoстанция нахoдится в гoрoде или в лесу, тo скoрoсть ветра занижена на 2-4 м/с пo сравнению с oткрытым местoм. Скoрoсть ветра над акватoриями крупных рек и oзёр, а также на вершинах хoлмoв на 2-5 м/с выше, чем в oбычных услoвиях.
Атмoсфернoе давление в разных тoчках местнoсти мoжет значительнo oтличаться oт давления на метеoстанции, в зависимoсти oт услoвий рельефа (при пoдъёме на 10 м давление пoнижается примернo на 1 мм рт.ст.).